TimeCDT,TemperatureF,Dew PointF,Humidity,Sea Level PressureIn,VisibilityMPH,Wind Direction,Wind SpeedMPH,Gust SpeedMPH,PrecipitationIn,Events,Conditions,WindDirDegrees,DateUTC
12:04 AM,48.2,44.6,87,29.98,8.0,Calm,Calm,-,0.00,Rain,Light Rain,0,2013-05-05 05:04:00
12:54 AM,48.0,45.0,89,29.96,10.0,NW,6.9,-,0.03,Rain,Light Rain,320,2013-05-05 05:54:00
1:27 AM,48.2,44.6,87,29.94,9.0,NNW,4.6,-,0.02,Rain,Rain,330,2013-05-05 06:27:00
1:54 AM,48.0,45.0,89,29.94,3.0,Variable,4.6,-,0.09,Rain,Heavy Rain,0,2013-05-05 06:54:00
2:24 AM,48.2,44.6,87,29.92,5.0,NNW,4.6,-,0.09,Rain,Rain,330,2013-05-05 07:24:00
2:54 AM,48.9,46.0,90,29.91,6.0,NNW,4.6,-,0.13,Rain,Rain,340,2013-05-05 07:54:00
3:35 AM,50.0,46.4,87,29.90,9.0,Variable,3.5,-,0.05,Rain,Light Rain,0,2013-05-05 08:35:00
3:54 AM,50.0,46.9,89,29.90,5.0,North,5.8,-,0.06,Rain,Rain,360,2013-05-05 08:54:00
4:07 AM,50.0,48.2,94,29.89,6.0,NNE,4.6,-,0.03,Rain,Rain,30,2013-05-05 09:07:00
4:49 AM,51.8,48.2,88,29.88,8.0,NNE,8.1,-,0.06,Rain,Light Rain,30,2013-05-05 09:49:00
4:54 AM,52.0,48.9,89,29.88,9.0,NNE,8.1,-,0.06,Rain,Light Rain,30,2013-05-05 09:54:00
5:08 AM,51.8,50.0,94,29.88,9.0,NNE,8.1,-,0.01,Rain,Light Rain,30,2013-05-05 10:08:00
5:38 AM,53.6,50.0,88,29.88,10.0,NE,5.8,-,0.02,Rain,Light Rain,40,2013-05-05 10:38:00
5:51 AM,53.6,50.0,88,29.88,8.0,NE,8.1,-,0.03,Rain,Rain,40,2013-05-05 10:51:00
5:54 AM,53.1,50.0,89,29.89,7.0,NE,6.9,-,0.03,Rain,Rain,40,2013-05-05 10:54:00
6:54 AM,54.0,51.1,90,29.89,5.0,NE,8.1,-,0.10,Rain,Rain,40,2013-05-05 11:54:00
7:27 AM,53.6,51.8,94,29.89,5.0,NE,9.2,-,0.05,Rain,Light Rain,40,2013-05-05 12:27:00
7:54 AM,54.0,52.0,93,29.88,7.0,NNE,8.1,-,0.08,Rain,Light Rain,30,2013-05-05 12:54:00
8:27 AM,55.4,51.8,88,29.88,8.0,NE,6.9,-,0.02,Rain,Light Rain,50,2013-05-05 13:27:00
8:54 AM,55.0,52.0,89,29.88,10.0,NE,12.7,-,0.02,Rain,Light Rain,50,2013-05-05 13:54:00
9:17 AM,55.4,51.8,88,29.88,10.0,NE,12.7,-,0.00,,Overcast,50,2013-05-05 14:17:00
9:54 AM,55.9,51.1,84,29.88,10.0,East,5.8,-,0.01,Rain,Light Rain,80,2013-05-05 14:54:00
10:02 AM,55.4,51.8,88,29.88,10.0,ENE,9.2,-,0.00,Rain,Light Rain,70,2013-05-05 15:02:00
10:14 AM,55.4,51.8,88,29.88,10.0,ENE,8.1,-,0.00,Rain,Light Rain,70,2013-05-05 15:14:00
10:54 AM,55.9,52.0,87,29.89,10.0,East,4.6,-,0.01,,Overcast,90,2013-05-05 15:54:00
11:54 AM,55.9,52.0,87,29.88,5.0,ENE,5.8,-,0.00,Rain,Light Rain,60,2013-05-05 16:54:00
12:14 PM,57.2,51.8,82,29.88,10.0,ENE,5.8,-,0.01,,Overcast,70,2013-05-05 17:14:00
12:42 PM,57.2,51.8,82,29.87,10.0,East,4.6,-,0.01,,Overcast,90,2013-05-05 17:42:00
12:54 PM,57.2,51.8,82,29.86,10.0,Variable,4.6,-,N/A,,Overcast,0,2013-05-05 17:54:00
1:38 PM,60.8,51.8,72,29.87,10.0,ENE,8.1,-,0.00,,Overcast,60,2013-05-05 18:38:00
1:54 PM,60.1,52.0,75,29.87,10.0,ESE,4.6,-,0.00,,Overcast,110,2013-05-05 18:54:00
2:31 PM,57.2,51.8,82,29.87,10.0,NE,8.1,-,N/A,,Overcast,50,2013-05-05 19:31:00
2:54 PM,60.1,53.1,78,29.86,10.0,Variable,3.5,-,N/A,,Overcast,0,2013-05-05 19:54:00
3:19 PM,60.8,51.8,72,29.85,10.0,ENE,9.2,-,N/A,,Overcast,60,2013-05-05 20:19:00
3:54 PM,60.1,51.1,72,29.85,10.0,ENE,10.4,-,N/A,,Overcast,60,2013-05-05 20:54:00
4:54 PM,59.0,51.1,75,29.85,10.0,East,4.6,-,N/A,,Overcast,80,2013-05-05 21:54:00
5:32 PM,59.0,51.8,77,29.85,10.0,East,6.9,-,N/A,,Overcast,80,2013-05-05 22:32:00
5:54 PM,57.9,51.1,78,29.86,10.0,ENE,10.4,16.1,N/A,,Overcast,60,2013-05-05 22:54:00
6:05 PM,57.2,51.8,82,29.86,10.0,ENE,11.5,-,N/A,,Overcast,60,2013-05-05 23:05:00
6:34 PM,57.2,50.0,77,29.87,10.0,NE,11.5,-,N/A,,Overcast,40,2013-05-05 23:34:00
6:54 PM,57.2,50.0,77,29.87,10.0,NE,10.4,-,N/A,,Overcast,40,2013-05-05 23:54:00
7:25 PM,55.4,50.0,82,29.88,10.0,NE,8.1,-,N/A,,Overcast,40,2013-05-06 00:25:00
7:54 PM,55.9,50.0,80,29.88,10.0,NE,9.2,-,N/A,,Overcast,40,2013-05-06 00:54:00
8:17 PM,55.4,48.2,77,29.89,10.0,NE,8.1,-,N/A,,Overcast,50,2013-05-06 01:17:00
8:54 PM,55.0,50.0,83,29.89,10.0,NNE,8.1,-,N/A,,Overcast,30,2013-05-06 01:54:00
9:36 PM,53.6,48.2,82,29.90,10.0,NE,10.4,-,N/A,,Overcast,50,2013-05-06 02:36:00
9:54 PM,54.0,48.9,83,29.90,10.0,NE,9.2,-,N/A,,Overcast,40,2013-05-06 02:54:00
10:24 PM,53.6,48.2,82,29.90,10.0,ENE,8.1,-,N/A,,Overcast,60,2013-05-06 03:24:00
10:50 PM,53.6,48.2,82,29.89,10.0,NE,6.9,-,N/A,,Overcast,40,2013-05-06 03:50:00
10:54 PM,53.1,48.9,86,29.88,10.0,NNE,6.9,-,N/A,,Overcast,30,2013-05-06 03:54:00
11:13 PM,53.6,48.2,82,29.88,10.0,NNE,8.1,-,N/A,,Overcast,30,2013-05-06 04:13:00
11:21 PM,53.6,48.2,82,29.88,10.0,NNE,8.1,-,N/A,,Overcast,30,2013-05-06 04:21:00
11:32 PM,53.6,48.2,82,29.87,10.0,NE,8.1,-,N/A,,Overcast,40,2013-05-06 04:32:00
11:54 PM,53.1,48.9,86,29.87,10.0,NE,6.9,-,N/A,,Overcast,40,2013-05-06 04:54:00